Wind_Speed
38 39 41 42 44 45 45 45 45 46 47 46 46 45 45 45 45 45 45 44 44 43 44 45 46 46 47 47 46 46 45 44 43 41 41 40 39 38 37 35 34 32 31
38 39 39 40 43 45 45 45 46 46 48 47 47 47 47 46 46 46 45 45 45 45 46 45 46 47 48 49 48 48 47 46 45 44 44 43 42 41 40 38 36 35 33
37 38 38 39 41 43 45 46 47 47 48 48 48 48 49 48 48 47 46 46 46 46 47 46 46 47 48 49 49 50 49 48 47 47 46 45 45 44 43 41 39 37 36
36 37 38 39 40 41 43 45 46 47 47 48 48 49 49 49 50 49 48 47 47 47 47 47 47 47 48 49 50 50 50 50 49 49 48 47 47 46 45 43 42 40 39
35 37 38 40 41 41 42 44 45 46 47 48 49 49 49 49 48 49 49 48 48 49 49 48 48 49 49 50 51 51 51 51 51 51 50 49 49 48 47 45 44 43 41
35 37 38 40 40 41 41 43 43 45 47 48 48 49 49 48 48 50 50 49 48 48 49 50 49 49 49 50 51 52 52 52 52 51 51 50 50 49 48 47 46 45 44
36 37 38 39 40 42 42 42 43 44 45 46 48 48 47 48 49 50 50 50 50 49 49 49 50 50 49 50 50 51 53 53 53 53 53 52 52 51 50 49 48 47 46
37 38 39 39 41 42 42 42 43 45 46 47 48 48 49 48 47 48 49 49 49 49 49 50 50 51 50 50 50 51 52 53 54 54 53 53 53 53 52 51 50 49 48
37 38 39 40 41 41 41 42 43 44 46 47 48 49 49 50 49 48 48 48 49 50 50 51 51 51 51 51 52 52 52 53 54 55 54 55 55 55 53 53 52 51 50
37 38 40 41 42 42 42 42 43 44 44 45 47 49 49 50 50 50 49 49 49 50 50 50 51 52 53 53 53 53 53 54 54 55 56 56 56 55 54 54 54 53 52
37 38 39 40 41 42 42 42 43 43 44 45 45 47 48 50 51 51 50 50 50 50 51 52 51 52 54 55 54 54 54 54 54 55 57 57 57 57 57 56 55 55 54
37 39 39 41 42 42 42 43 43 43 44 45 45 45 46 48 49 50 50 50 51 51 52 52 52 52 54 55 54 53 53 53 54 54 56 57 57 57 57 57 55 54 54
38 39 39 40 41 42 43 42 43 43 44 45 45 46 47 47 48 49 50 50 50 51 52 51 51 52 54 54 53 53 54 54 53 54 55 55 56 57 57 57 56 55 55
40 40 40 41 41 42 42 42 42 43 44 45 46 47 48 49 49 49 50 50 50 51 52 51 51 53 54 54 53 53 53 55 54 54 55 55 56 56 56 56 56 57 57
42 42 41 42 42 43 43 43 43 43 43 44 46 47 48 49 50 50 51 51 50 50 50 51 51 51 53 53 53 53 53 54 54 54 54 54 54 55 56 56 56 57 57
41 41 42 43 43 44 44 43 42 42 43 44 44 45 47 48 49 50 51 51 52 50 50 50 52 52 53 53 53 52 51 51 52 52 52 53 54 55 55 56 56 56 57
40 40 40 41 41 41 41 42 43 42 43 44 44 44 45 47 47 49 50 51 52 54 52 51 52 53 54 54 54 53 53 52 51 51 51 53 53 55 56 56 57 57 57
39 39 39 39 39 40 40 41 42 42 43 42 42 42 44 46 47 47 48 50 51 53 54 54 53 52 53 54 54 54 54 53 53 52 51 53 54 54 55 56 56 56 57
39 39 39 38 38 38 39 39 40 41 41 41 41 41 42 43 44 46 47 48 50 51 53 53 52 51 52 52 53 54 55 55 54 52 52 52 53 54 54 54 55 56 56
40 39 38 38 37 37 38 38 38 39 39 40 40 40 40 41 42 43 45 46 48 49 51 51 52 51 51 52 54 54 55 55 55 55 54 53 53 54 54 53 54 54 53
39 39 38 37 37 36 36 36 37 37 38 39 40 40 40 40 41 42 42 44 45 46 47 49 50 50 51 52 52 53 54 54 53 54 55 54 54 54 53 53 53 53 53
37 37 36 36 36 35 35 35 35 36 37 38 39 39 40 40 41 41 41 42 43 43 44 46 48 48 49 50 51 53 54 53 52 52 52 53 54 53 53 53 53 54 54
35 35 35 35 35 35 34 34 34 35 35 36 37 38 39 39 39 39 39 40 41 42 43 45 46 47 47 48 49 50 52 52 52 52 52 52 52 53 53 53 53 54 55
34 34 34 34 35 35 34 34 34 34 35 36 36 36 36 36 36 36 37 38 39 40 42 43 44 45 46 47 47 47 49 51 51 51 51 51 52 54 54 54 54 54 54
35 35 35 35 34 34 33 34 34 34 34 34 34 34 35 35 35 35 35 36 37 37 38 40 41 42 43 45 46 46 47 49 50 49 50 50 51 52 53 53 53 53 54
34 34 34 34 34 33 33 34 34 34 33 33 33 34 34 34 34 34 34 35 35 35 35 36 38 39 40 42 43 44 45 46 47 48 48 49 50 50 50 51 51 52 53
Wind_Direction
262 260 260 257 254 253 255 256 256 256 255 255 255 256 256 256 256 255 255 254 254 254 253 252 250 248 246 244 244 243 244 243 242 242 243 244 245 246 247 248 249 250 252
264 263 261 258 256 255 255 257 257 257 256 256 256 256 256 256 256 255 254 253 253 254 254 253 251 250 247 245 244 243 243 243 243 243 243 243 244 245 246 248 250 251 251
266 264 260 259 258 257 257 257 257 257 257 257 257 256 256 256 255 254 253 254 254 254 253 254 252 251 248 245 244 243 243 243 243 243 243 244 244 245 245 246 248 251 252
268 266 262 260 260 259 259 259 259 259 258 257 257 256 256 256 256 255 255 254 254 254 252 253 252 251 249 246 243 243 243 242 242 242 244 245 245 246 246 246 248 250 252
270 266 264 263 262 262 263 262 260 259 259 258 258 257 257 256 255 255 255 255 254 253 252 252 252 251 250 248 245 243 243 242 242 242 243 244 245 246 246 246 247 249 250
271 269 266 264 264 264 265 263 262 261 260 259 258 258 257 257 256 255 255 254 253 252 252 251 250 250 249 247 245 244 243 243 243 243 244 244 245 245 246 247 248 248 248
273 270 267 265 264 266 266 265 263 262 262 260 259 258 258 258 257 255 254 252 252 252 252 252 251 249 248 246 245 245 244 243 243 243 245 246 246 246 247 248 248 248 248
274 271 269 268 266 268 268 266 265 264 263 261 259 259 258 257 256 255 253 252 251 251 252 252 251 249 247 247 246 245 246 245 244 244 244 245 246 247 247 247 247 247 248
277 272 270 270 269 269 271 270 268 266 264 262 260 259 259 257 256 255 254 253 252 252 253 252 251 249 247 247 246 246 247 247 246 245 244 244 245 246 247 247 247 247 247
281 277 274 272 271 271 272 272 271 269 266 264 261 259 259 258 255 254 254 254 254 253 254 253 250 248 247 247 246 247 248 247 246 246 245 246 246 245 246 246 246 247 247
283 280 277 276 275 274 272 272 271 269 267 265 263 261 259 259 255 254 254 254 254 253 253 252 250 249 248 247 247 247 248 248 248 248 246 246 245 245 245 246 246 246 246
284 282 280 278 276 275 274 273 272 270 267 265 264 263 262 260 257 255 254 255 255 253 252 252 250 249 248 248 249 249 249 249 249 250 248 247 246 245 245 246 245 245 245
286 284 281 279 277 276 274 274 273 271 269 267 265 264 264 262 259 257 255 255 255 255 252 251 250 250 249 249 249 250 250 249 250 250 248 247 246 245 245 245 245 244 244
287 286 283 281 279 277 275 274 274 272 269 268 266 265 264 263 260 258 257 257 257 254 252 251 251 251 250 249 249 249 249 248 249 250 249 248 247 246 245 245 244 244 245
287 286 284 282 281 279 277 276 275 272 270 268 267 265 264 263 262 260 259 258 257 256 252 251 251 252 251 250 250 249 248 248 249 250 249 248 248 246 245 245 245 245 246
287 286 285 284 282 281 279 278 276 274 272 271 269 267 266 265 264 262 261 260 257 256 255 254 253 252 252 251 250 250 248 249 250 250 249 248 247 245 244 245 245 245 246
289 288 287 285 284 282 280 279 277 276 275 274 272 269 267 265 264 263 262 260 258 256 256 256 256 254 252 251 250 250 249 249 250 251 250 248 246 244 244 243 244 245 247
290 289 288 287 285 283 281 279 277 277 276 275 274 272 269 266 265 264 263 262 260 258 257 257 257 255 253 252 251 251 249 249 250 250 250 248 246 245 244 244 244 245 247
291 290 289 288 286 284 282 280 278 277 277 277 276 274 272 269 267 265 265 264 262 260 258 256 256 254 252 251 251 250 249 249 249 250 249 248 246 246 245 244 245 245 246
291 291 290 289 287 286 284 281 279 278 277 276 277 277 275 273 270 268 266 265 263 261 258 256 255 255 253 252 251 250 250 249 248 248 248 248 248 247 245 245 246 245 245
292 291 290 289 288 287 285 283 281 278 277 277 277 277 277 276 273 270 268 266 265 262 259 255 253 254 254 253 252 251 249 249 250 249 248 249 249 247 246 247 247 246 247
293 292 291 290 289 288 286 284 282 281 279 278 277 278 278 277 276 273 270 268 265 261 258 255 254 253 253 252 251 251 250 248 249 249 249 249 248 247 247 247 247 247 248
295 294 292 291 291 289 287 285 283 283 281 280 280 280 279 278 276 275 272 269 266 263 260 257 255 254 253 252 250 251 250 247 249 248 248 248 248 247 247 246 245 247 248
296 296 294 293 292 289 286 285 284 284 283 281 281 281 280 278 277 275 273 271 268 265 263 260 258 257 254 252 251 250 249 248 248 247 247 247 247 247 247 246 246 247 247
297 296 295 294 293 290 287 287 286 284 284 283 282 281 280 279 277 275 274 273 270 267 265 261 259 257 254 252 252 253 250 248 247 247 247 247 247 246 246 246 246 246 246
300 298 296 296 294 292 290 289 288 286 284 283 282 281 281 278 277 275 275 274 271 267 265 263 260 256 254 252 252 252 250 249 248 247 246 246 246 246 244 244 244 244 245
Height
5682 5683 5684 5686 5689 5691 5694 5696 5698 5700 5702 5705 5707 5709 5711 5713 5714 5715 5717 5719 5721 5723 5724 5726 5729 5732 5736 5740 5744 5748 5752 5756 5760 5765 5769 5773 5777 5780 5784 5787 5790 5792 5795
5672 5673 5674 5675 5677 5680 5682 5684 5686 5687 5689 5691 5693 5696 5698 5700 5702 5703 5705 5707 5709 5710 5712 5714 5717 5720 5723 5727 5731 5736 5741 5745 5749 5754 5758 5762 5767 5771 5774 5778 5781 5783 5786
5662 5663 5664 5665 5667 5668 5669 5671 5673 5675 5677 5678 5680 5682 5684 5686 5688 5690 5692 5694 5696 5698 5699 5701 5704 5707 5710 5714 5719 5724 5729 5734 5738 5742 5747 5751 5756 5760 5765 5768 5771 5774 5777
5653 5654 5654 5655 5656 5657 5658 5659 5661 5662 5664 5665 5666 5668 5670 5672 5675 5677 5679 5681 5683 5684 5686 5689 5691 5694 5697 5701 5706 5711 5716 5721 5725 5730 5735 5740 5745 5749 5753 5757 5761 5764 5767
5644 5644 5645 5645 5646 5647 5647 5647 5648 5649 5650 5651 5652 5654 5656 5657 5660 5662 5665 5667 5669 5671 5673 5676 5678 5681 5684 5688 5693 5698 5703 5708 5713 5718 5723 5728 5732 5736 5741 5746 5750 5753 5756
5634 5634 5635 5635 5635 5635 5635 5636 5636 5637 5637 5638 5639 5640 5642 5643 5645 5648 5651 5653 5656 5658 5660 5663 5665 5668 5672 5675 5679 5685 5690 5695 5700 5705 5710 5715 5720 5724 5728 5734 5738 5742 5746
5625 5624 5624 5624 5624 5624 5624 5624 5624 5625 5624 5625 5626 5627 5628 5629 5631 5634 5637 5640 5642 5645 5648 5650 5652 5656 5659 5663 5667 5671 5676 5681 5686 5691 5696 5701 5706 5711 5716 5720 5725 5729 5733
5615 5614 5614 5614 5614 5613 5613 5613 5612 5613 5612 5613 5613 5614 5615 5616 5618 5620 5623 5626 5629 5632 5635 5637 5640 5643 5647 5650 5654 5659 5663 5668 5673 5678 5682 5688 5693 5697 5702 5707 5711 5716 5720
5605 5604 5604 5603 5603 5603 5602 5601 5600 5600 5600 5600 5601 5601 5602 5603 5605 5607 5610 5613 5616 5619 5621 5624 5627 5630 5634 5637 5641 5646 5650 5655 5659 5664 5668 5674 5679 5683 5688 5693 5697 5702 5707
5596 5594 5593 5593 5592 5592 5591 5590 5589 5588 5588 5588 5588 5589 5589 5591 5592 5595 5597 5600 5603 5605 5608 5611 5614 5617 5621 5625 5628 5633 5637 5641 5645 5649 5654 5659 5664 5669 5674 5679 5683 5688 5693
5586 5585 5583 5582 5581 5580 5579 5578 5578 5577 5577 5576 5576 5576 5577 5578 5580 5582 5585 5587 5590 5592 5595 5597 5600 5603 5608 5612 5615 5619 5623 5627 5631 5635 5640 5645 5650 5655 5660 5665 5670 5675 5679
5576 5574 5573 5572 5570 5569 5568 5567 5566 5565 5565 5565 5564 5564 5565 5565 5567 5569 5571 5574 5577 5579 5581 5584 5587 5590 5594 5598 5602 5606 5610 5613 5617 5621 5625 5630 5635 5640 5645 5650 5656 5661 5666
5566 5564 5563 5561 5560 5558 5557 5556 5554 5554 5553 5553 5552 5552 5552 5553 5554 5555 5558 5560 5562 5565 5567 5570 5573 5576 5580 5584 5588 5592 5595 5599 5603 5607 5611 5615 5620 5625 5630 5636 5641 5647 5652
5556 5554 5552 5550 5549 5547 5545 5544 5542 5541 5541 5541 5540 5540 5540 5540 5540 5542 5544 5547 5549 5552 5554 5556 5559 5563 5566 5570 5573 5577 5581 5584 5588 5592 5596 5601 5605 5610 5615 5621 5627 5632 5637
5546 5543 5541 5539 5538 5536 5534 5532 5531 5530 5529 5528 5528 5528 5527 5527 5528 5529 5531 5533 5535 5537 5540 5542 5545 5548 5552 5556 5559 5562 5566 5570 5574 5578 5582 5586 5590 5595 5601 5606 5612 5617 5622
5535 5532 5530 5528 5526 5524 5522 5520 5519 5518 5517 5516 5515 5515 5514 5515 5515 5516 5517 5519 5521 5523 5526 5528 5531 5534 5538 5541 5545 5548 5552 5555 5559 5563 5567 5571 5576 5581 5586 5591 5597 5602 5607
5524 5521 5519 5516 5514 5511 5510 5508 5507 5506 5504 5503 5503 5502 5502 5502 5502 5502 5503 5505 5507 5509 5511 5514 5517 5520 5523 5526 5530 5533 5537 5541 5545 5548 5552 5557 5561 5566 5571 5577 5582 5587 5592
5514 5511 5508 5506 5503 5500 5498 5496 5495 5494 5493 5491 5490 5489 5489 5489 5489 5489 5489 5491 5492 5494 5497 5499 5501 5504 5508 5511 5515 5518 5522 5526 5530 5534 5538 5542 5547 5551 5556 5562 5567 5572 5578
5504 5501 5498 5495 5492 5490 5487 5485 5484 5483 5481 5480 5478 5477 5476 5475 5475 5475 5476 5476 5477 5479 5481 5484 5486 5490 5493 5496 5499 5502 5506 5511 5516 5520 5524 5528 5532 5537 5542 5547 5553 5558 5563
5494 5491 5488 5485 5482 5479 5477 5474 5473 5471 5470 5468 5467 5465 5464 5463 5462 5462 5462 5462 5463 5464 5466 5469 5472 5475 5479 5482 5485 5488 5492 5497 5502 5506 5510 5513 5518 5522 5527 5532 5538 5543 5548
5484 5481 5477 5475 5472 5469 5466 5464 5462 5460 5459 5457 5455 5454 5452 5451 5450 5450 5449 5448 5449 5450 5452 5455 5458 5461 5465 5468 5470 5473 5477 5482 5487 5491 5495 5499 5503 5508 5513 5517 5523 5528 5533
5474 5470 5467 5464 5461 5459 5456 5454 5452 5450 5448 5446 5444 5443 5441 5440 5438 5437 5436 5435 5435 5436 5438 5441 5444 5447 5450 5453 5456 5459 5463 5467 5471 5476 5481 5485 5489 5494 5498 5503 5508 5512 5517
5465 5461 5458 5455 5452 5449 5446 5444 5441 5439 5437 5435 5433 5431 5430 5428 5426 5425 5424 5423 5423 5423 5425 5427 5430 5433 5436 5438 5442 5445 5448 5452 5456 5461 5466 5470 5475 5479 5484 5488 5492 5497 5502
5456 5452 5448 5445 5442 5439 5436 5433 5431 5429 5427 5425 5423 5420 5418 5417 5415 5414 5413 5412 5411 5412 5413 5414 5417 5419 5422 5425 5427 5431 5434 5438 5442 5446 5451 5455 5460 5464 5469 5474 5478 5482 5487
5447 5443 5439 5436 5432 5429 5426 5423 5421 5419 5416 5414 5412 5410 5408 5406 5405 5403 5402 5401 5401 5400 5401 5402 5404 5406 5409 5411 5414 5417 5421 5425 5429 5432 5437 5441 5445 5450 5454 5459 5464 5468 5472
5438 5434 5430 5426 5422 5419 5416 5413 5411 5408 5406 5404 5402 5400 5398 5396 5395 5393 5392 5390 5390 5389 5389 5390 5392 5394 5396 5399 5401 5404 5407 5411 5415 5419 5423 5427 5432 5436 5441 5445 5449 5454 5458